Flag for Russia Weather past 2 weeks in Bryansk, Russia

Now
73 °F

Sunny.


Feels Like: 77 °F
Forecast: 57 / 68 °F
Wind: 3 mph from Southeast

Location: Brjansk

Current Time: Aug 21, 2014 at 10:03:34 PM

Latest Report: Aug 21, 2014 at 9:00 PM


Visibility: 10 mi

Pressure: 29.86 "Hg

Humidity: 50%

Dew point: 54 °F

Location of BryanskLocation

Historic Weather in Bryansk — Graph

°F

Bryansk temperature yesterday

Maximum temperature yesterday: 82 °F (at 2:00 PM)
Minimum temperature yesterday: 61 °F (at 9:00 AM)
Average temperature yesterday: 75 °F

Past Weeks' High & Low Weather Summary

 TemperatureHumidityPressure
High91 °F (Aug 15, 1:00 PM)100% (Aug 15, 11:00 PM)30.04 "Hg (Aug 15, 11:00 PM)
Low52 °F (Aug 18, 8:00 AM)30% (Aug 19, 4:00 PM)29.68 "Hg (Aug 15, 12:00 PM)
Average74 °F57%29.88 "Hg
* Reported Aug 7 8:30 AM — Aug 21 9:00 PM, Bryansk, Weather by CustomWeather, © 2014

Note: Actual official high and low records may vary slightly from our data, if they occured in-between our weather recording intervals... More about our weather records

Advertising

Bryansk weather history for previous 24 hours

 ConditionsComfort  
Time TempWeatherWind HumidityBarometerVisibility
9:00 PM
Aug 21
73 °FSunny.3 mph50%29.86 "Hg10 mi
8:00 PM77 °FSunny.6 mph44%29.89 "Hg10 mi
7:00 PM81 °FSunny.1 mph39%29.89 "Hg10 mi
6:00 PM84 °FScattered clouds.6 mph31%29.89 "HgN/A
5:00 PM86 °FScattered clouds.1 mph31%29.92 "HgN/A
4:00 PM84 °FScattered clouds.3 mph31%29.95 "HgN/A
3:00 PM84 °FScattered clouds.3 mph31%29.95 "HgN/A
2:00 PM82 °FScattered clouds.6 mph37%29.98 "HgN/A
1:00 PM79 °FPassing clouds.3 mph45%29.98 "HgN/A
12:00 PM79 °FSunny.3 mph48%29.98 "Hg10 mi
11:00 AM75 °FSunny.3 mph54%29.98 "Hg10 mi
10:00 AM73 °FSunny.3 mph57%29.98 "Hg10 mi
9:00 AM70 °FSunny.No wind64%29.98 "Hg10 mi
8:00 AM63 °FSunny.No wind83%29.98 "Hg10 mi
7:00 AM57 °FClear.No wind88%29.98 "Hg10 mi
6:00 AM59 °FClear.1 mph82%29.98 "Hg10 mi
5:00 AM61 °FClear.3 mph77%29.95 "Hg10 mi
3:00 AM66 °FClear.6 mph60%29.95 "Hg10 mi
2:00 AM66 °FClear.3 mph60%29.95 "Hg10 mi
1:00 AM68 °FClear.3 mph56%29.95 "Hg10 mi
12:00 AM68 °FClear.6 mph53%29.95 "Hg10 mi
11:00 PM
Aug 20
68 °FClear.6 mph53%29.95 "Hg10 mi
10:00 PM70 °FClear.6 mph50%29.95 "Hg10 mi
Weather by CustomWeather, © 2014

See weather overviewHow to use our weather pages